map of BZI home
Great Circle Mapper logo
BZI - Airport
Location
City:  Balikesir, Turkey
ICAO / IATA:LTBF / BZI

Details
Type:Airport (Aerodrome, Airfield)
Use:Military
Latitude:3937'09"N (39.619258)
Longitude:2755'33"E (27.925958)
Datum:WGS 1984
Elevation:340 ft (104 m)
Variation:4.8E (WMM2015 magnetic declination)
Runways:1
Longest:9810 × 144 ft (2990 × 44 m), paved

Time
Time Zone:UTC+2 (DST+3)
Local Time:

Weather
METAR:LTBF 220050Z 36005KT 9999 SCT035 SCT100 04/M01 Q1027 NOSIG

Related Locations
Nearby:
Farthest:NTAV: 11316 mi / 18212 km
Raivavae, Tubuai Islands, Austral Islands, PF

Find:

   beyond  
but within

Other Information
Maps:
NOTAMs:
Links:
Sources:

  
flag of Turkey   

Sectional Chart

Flight Planning
at skyvector.com

Satellite Image

Google Maps Satellite View

 

Copyright © 2004-2014 Karl L. Swartz. All rights reserved.
The Great Circle Mapper name and logo are trademarks of the Great Circle Mapper.
All other trademarks mentioned herein belong to their respective owners.
Please see credits for attibutions and further copyright information.

  Follow gcmap on Facebook Follow gcmap on Twitter

hCard Microformat

Geo Microformat